Regional Weather Roundup
Issued by NWS

Home | Current Version | Previous Version | Text Only | Print | Product List | Glossary Off
Versions: 1 2 3 4 5 6 7 8 9 10 11 12 13 14 15 16 17 18 19 20 21 22 23 24 25 26 27 28 29 30 31 32 33 34 35 36 37 38 39 40 41 42 43

000
ASUS43 KDMX 271507
RWRIA

WEATHER ROUNDUP FOR IOWA
NATIONAL WEATHER SERVICE DES MOINES IA
900 AM CST SAT DEC 27 2014

NOTE: "FAIR" INDICATES FEW OR NO CLOUDS BELOW 12,000 FEET WITH NO
SIGNIFICANT WEATHER AND/OR OBSTRUCTIONS TO VISIBILITY.

* - THESE STATIONS ARE NOT NWS STATIONS...THUS NOT UNDER NWS
QUALITY CONTROL.  THEY ALSO DO NOT REPORT WEATHER SUCH
AS PRECIPITATION OR FOG.

IAZ001>003-012>014-020>022-031>034-043>046-271600-
   NORTHWEST IOWA

CITY           SKY/WX    TMP DP  RH WIND       PRES   REMARKS
CARROLL *      CLEAR     21  18  86 NW13      30.17R WCI   9
CHEROKEE *     CLEAR     18  16  93 NW6       30.18R WCI   9
DENISON *      CLOUDY    21  19  93 NW14      30.17R WCI   8
LE MARS *      MOCLDY    16  12  86 W6        30.21R WCI   7
ORANGE CITY *  PTCLDY    16  10  79 W7        30.16R WCI   6
SHELDON *      MOCLDY    14  12  92 NW10      30.14R WCI   1
SIOUX CITY     CLEAR     16  11  80 NW9       30.22R WCI   4
SPENCER        CLEAR     17  10  74 NW9       30.14R WCI   6
STORM LAKE *   CLEAR     18  14  86 NW17      30.14R WCI   2
$$

IAZ055>058-069>071-079>083-090>094-271600-
   SOUTHWEST IOWA

CITY           SKY/WX    TMP DP  RH WIND       PRES   REMARKS
ATLANTIC *     CLOUDY    25  21  86 NW10      30.18S WCI  15
AUDUBON *      SUNNY     23  18  80 NW10      30.17R WCI  12
CLARINDA *     CLOUDY    27  23  86 NW8G18    30.22S WCI  18
COUNCIL BLFS * CLOUDY    21  21 100 NW10      30.20R WCI  10
CRESTON *      CLOUDY    27  25  93 NW14      30.16S WCI  15
HARLAN  *      CLOUDY    23  23 100 NW10      30.23R WCI  12
LAMONI         CLOUDY    28  25  88 NW16      30.15R WCI  16
RED OAK *      CLOUDY    25  21  86 NW13      30.21S WCI  13
SHENANDOAH *   CLOUDY    25  21  86 NW12G18   30.23R WCI  14
$$

IAZ047>049-059>061-072>074-084-271600-
   CENTRAL IOWA

CITY           SKY/WX    TMP DP  RH WIND       PRES   REMARKS
AMES           CLOUDY    27  22  81 NW14      30.13R WCI  16
ANKENY *       CLOUDY    28  25  86 NW12G18   30.14R WCI  18
CHARITON *     CLOUDY    30  25  80 NW16G23   30.14R WCI  19
DES MOINES     CLOUDY    28  23  81 NW14      30.15R WCI  17
GRINNELL*      CLOUDY    30  27  86 W17       30.12R WCI  18
KNOXVILLE *    CLOUDY    30  25  80 NW16      30.12R WCI  19
MARSHALLTOWN   CLOUDY    27  24  89 NW18      30.08R WCI  14
PELLA *        CLOUDY    30  27  88 NW14G20   30.14R WCI  20
PERRY *        CLOUDY    25  23  93 NW10G16   30.16R WCI  15
$$

IAZ004>006-015-016-023>025-035-036-271600-
   NORTH CENTRAL IOWA

CITY           SKY/WX    TMP DP  RH WIND       PRES   REMARKS
ALGONA *       CLOUDY    19  18  93 NW14G23   30.11R WCI   6
CLARION *      MOCLDY    21  21 100 NW13G18   30.10R WCI   9
ESTHERVILLE    MOCLDY    15  12  88 NW16      30.11R WCI  -1
FORT DODGE *   PTCLDY    21  16  79 W7        30.13S WCI  13
MASON CITY     CLOUDY    23  20  88 NW22G29   30.05R WCI   8
FOREST CITY *  PTCLDY    23  19  86 NW16      30.06R WCI  10
IOWA FALLS *   CLOUDY    25  23  93 NW16      30.10R WCI  12
$$

IAZ007>011-017>019-026>030-037>042-050>054-066-271600-
   NORTHEAST IOWA

CITY           SKY/WX    TMP DP  RH WIND       PRES   REMARKS
CEDAR RAPIDS   CLOUDY    32  30  92 W18G25    30.01R WCI  20
CHARLES CITY * CLOUDY    25  25 100 NW20      30.03R WCI  11
CLINTON *      CLOUDY    36  30  80 W20G31    30.03R WCI  25
DECORAH *      CLOUDY    28  28 100 NW10G18   29.96R WCI  19
DUBUQUE        CLOUDY    33  33 100 W20G29    29.97R WCI  21
MONTICELLO *   CLOUDY    34  32  93 W16G26    29.99R WCI  23
OELWEIN *      CLOUDY    30  28  93 NW20      30.00R WCI  18
WATERLOO       CLOUDY    28  24  85 NW15G23   30.03R WCI  16
$$

IAZ064-065-067-068-078-271600-
   EAST CENTRAL IOWA

CITY           SKY/WX    TMP DP  RH WIND       PRES   REMARKS
DAVENPORT      CLOUDY    35  30  82 W22G31    30.03R WCI  23
IOWA CITY      CLOUDY    33  30  88 W14       30.06R WCI  23
MT. PLEASANT * CLOUDY    36  30  80 W15G21    30.11R WCI  26
MUSCATINE *    PTSUNNY   37  30  75 W15G26    30.07F WCI  28
QUAD CITIES    CLOUDY    36  30  79 W14G28    30.04R WCI  27
$$

IAZ062-063-075>077-085>089-095>099-271600-
   SOUTHEAST IOWA

CITY           SKY/WX    TMP DP  RH WIND       PRES   REMARKS
BURLINGTON     CLOUDY    37  32  82 W10       30.07F WCI  30
FAIRFIELD *    CLOUDY    34  28  80 W17G24    30.10R WCI  23
FORT MADISON * CLOUDY    39  34  81 W12G18    30.10S WCI  32
KEOKUK *       CLOUDY    37  32  81 W14G22    30.10S WCI  29
OSKALOOSA *    CLOUDY    32  28  86 NW22G28   30.10R WCI  19
CENTERVILLE *  PTSUNNY   32  28  86 W17       30.13S WCI  21
OTTUMWA        CLOUDY    32  27  81 W14G23    30.11R WCI  22
WASHINGTON *   PTSUNNY   36  34  93 W18       30.10R WCI  25
$$

ABBREVIATIONS USED IN REMARKS
   TC - TEMPERATURES IN CELSIUS
  WCI - WIND CHILL INDEX
   HX - HEAT INDEX
  VSB - VISIBILITY
$$



USA.gov is the U.S. government's official web portal to all federal, state and local government web resources and services.